DELTA 1 DEB, 10469

Orbit data source: Space-Track

DELTA 1 DEB, 10469 is space debris in LEO originally from a launch on Thu, 14 Jul 1977 UTC launched from the Air Force Eastern Test Range (AFETR). Debris objects in space refer to the collection of defunct objects orbiting the Earth. Examples of debris include non-operational satellites, rocket bodies, and fragments generated from explosions, collisions, or faulty payload assembly.

Loading next visibility...
Identifier
10469, 1977-065EB
Orbit
LEO
Country
Flag of USUS
Related business
Manufacturer
Unknown
Mission
Spacecraft
Bus & Motor
Unknown
Mass
Unknown
Launch date (UTC)
1977-07-14 (49 years ago)
Launch vehicle
Unknown
Launch site
Air Force Eastern Test Range (AFETR)
Object type
Payload
Rocket body
Debris
Shape & HBR
Unknown shape, 0.1 m
Radar Cross Section
Medium (>0.1 m² and <1 m²)

Expand to show TLE details & history
Last TLE update: 1 day ago

TLE from 1 day ago
0 DELTA 1 DEB
1 10469U 77065EB  26262.41520259  .00000366  00000-0  29640-3 0  9990
2 10469  29.1249 295.9712 0865310 247.7742 102.8838 12.72352470282409
Epoch: 2026-09-19T09:57Z
TLE epoch observation values (Epoch: 2026-09-19T09:57:53.503Z)
Latitude
Longitude
148.17421°
Altitude
1,573.692 km
Speed
6.99 km/s
True Right ascension
19h 43m 53s
True Declination
0° 00' 00"
Sunlit
Object was in daylight at epoch
Visualization orbit readout
Latitude
Unknown
Longitude
Unknown
Altitude
Unknown
Speed
Unknown
Apparent Right ascension
Unknown
Apparent Declination
Unknown
Sunlit
N/A
Visualization observer readout
Local Sidereal Time
02:37:47
Azimuth
Unknown
Elevation
Unknown
Doppler factor
Unknown
Orbital elements
Apogee altitude
2,047.063 km
Perigee altitude
705.102 km
Semi-major axis
7,754.22 km
Eccentricity
0.08653
Inclination
29.1249°
RAAN
295.9712°
Arg. of periapsis
247.7742°
True anomaly
112.27989°
Mean anomaly
102.8838°
Eccentric anomaly
107.60934°
Mean motion
3.1786 °/min
Orbital period
113.26 mins
BSTAR
0.0002964
Loading maneuver chart data...
Computing Atmospheric mass density...
Loading historical data...
Loading historical data...
Loading historical data...
Loading historical data...
Loading historical data...
Loading historical data...
Loading historical data...

Documentation

Showing up to 5 results
|